FW9881 Weather Reports


time (UTC)temp
C
wind
direction
speed
KPH
gust
KPH
rain 1hr
cm
rain 24hr
cm
rain mn
cm
humidity
%
barometer
mb
20260509231518 7 286 0.0 1.6 0.03 1.73 1.73 89 1014.8
20260509230616 7 292 0.0 0.0 0.03 1.73 1.73 89 1014.6
20260509225633 7 292 0.0 0.0 0.03 1.73 1.73 89 1014.7
20260509223817 6 180 0.0 0.0 0.00 1.70 1.70 89 1014.8
20260509223719 6 180 0.0 0.0 0.00 1.70 1.70 90 1014.8
20260509222718 6 180 0.0 1.6 0.03 1.70 1.70 90 1014.7
20260509220716 6 315 0.0 1.6 0.10 1.70 1.70 90 1014.8
20260509215718 6 315 0.0 0.0 0.15 1.70 1.70 89 1015.0
20260509215619 6 315 0.0 0.0 0.15 1.70 1.70 90 1015.0
20260509214519 6 315 0.0 0.0 0.20 1.70 1.70 89 1015.0
20260509213518 6 270 0.0 0.0 0.25 1.70 1.70 90 1015.4
20260509212518 6 270 1.6 3.2 0.28 1.68 1.65 90 1015.5
20260509211517 6 270 1.6 1.6 0.30 1.65 1.63 89 1015.5
20260509211418 6 270 3.2 3.2 0.28 1.63 1.63 89 1015.5
20260509205417 6 126 0.0 0.0 0.25 1.52 1.52 90 1015.6
20260509205318 6 112 0.0 0.0 0.25 1.52 1.52 89 1015.6
20260509204318 6 112 0.0 0.0 0.23 1.45 1.45 89 1015.6
20260509203317 6 180 0.0 0.0 0.23 1.42 1.42 91 1015.7
20260509202416 6 180 0.0 0.0 0.23 1.40 1.37 91 1015.7
20260509202317 6 180 0.0 0.0 0.20 1.37 1.37 91 1015.6
20260509201318 6 337 0.0 0.0 0.20 1.35 1.35 91 1015.9
20260509201216 6 337 0.0 0.0 0.20 1.35 1.35 90 1015.8
20260509193218 6 157 0.0 0.0 0.18 1.19 1.19 91 1015.6
20260509192317 6 157 0.0 0.0 0.18 1.17 1.17 90 1015.8
20260509191216 6 157 0.0 1.6 0.20 1.14 1.12 91 1016.0
20260509190219 6 112 1.6 3.2 0.23 1.12 1.12 90 1015.8
20260509185316 6 157 0.0 0.0 0.20 1.07 1.07 90 1015.9
20260509184317 6 112 0.0 0.0 0.23 1.04 1.04 91 1016.0
20260509183318 6 112 3.2 4.8 0.23 1.02 1.02 91 1016.0
20260509182416 6 112 1.6 3.2 0.23 0.99 0.99 90 1016.2
20260509181418 6 112 0.0 1.6 0.23 0.94 0.94 91 1016.4
20260509181316 6 112 0.0 1.6 0.23 0.94 0.94 90 1016.4
20260509180317 6 112 0.0 0.0 0.20 0.89 0.89 91 1016.5
20260509175318 6 112 0.0 1.6 0.23 0.86 0.86 90 1016.6
20260509174416 6 135 0.0 1.6 0.25 0.81 0.81 91 1016.6
20260509173417 6 157 0.0 0.0 0.25 0.79 0.79 91 1016.7
20260509171417 6 112 0.0 1.6 0.25 0.71 0.71 91 1016.8
20260509171318 6 112 1.6 4.8 0.25 0.71 0.71 91 1016.7
20260509170317 6 157 1.6 3.2 0.28 0.69 0.66 90 1016.9
20260509170218 6 124 0.0 4.8 0.25 0.66 0.66 91 1016.8
20260509165217 6 136 0.0 3.2 0.23 0.61 0.61 91 1016.8
20260509162316 6 202 0.0 0.0 0.20 0.48 0.48 90 1016.8
20260509160317 6 157 0.0 0.0 0.15 0.41 0.41 91 1017.1
20260509155318 6 247 0.0 0.0 0.15 0.38 0.38 91 1017.1
20260509154317 6 157 0.0 3.2 0.15 0.36 0.33 91 1017.3
20260509154218 6 149 0.0 1.6 0.13 0.33 0.33 91 1017.2
20260509153217 6 157 0.0 0.0 0.13 0.30 0.30 91 1017.4
20260509153118 6 154 3.2 8.0 0.13 0.30 0.30 90 1017.4
20260509153017 6 135 4.8 8.0 0.13 0.30 0.30 91 1017.5
20260509152017 6 157 0.0 3.2 0.10 0.28 0.28 91 1017.6
20260509151017 6 135 1.6 3.2 0.10 0.25 0.25 91 1017.5
20260509145118 5 202 0.0 0.0 0.13 0.23 0.23 90 1017.5
20260509142118 5 225 0.0 0.0 0.10 0.18 0.18 91 1017.3
20260509142017 5 225 0.0 0.0 0.10 0.18 0.15 91 1017.2
20260509141017 5 202 0.0 4.8 0.10 0.15 0.15 90 1017.5
20260509140017 5 225 1.6 3.2 0.08 0.13 0.13 90 1017.5
20260509135116 5 157 1.6 1.6 0.08 0.10 0.10 91 1017.3
20260509134135 5 157 0.0 0.0 0.08 0.10 0.10 90 1017.1
20260509133217 5 157 0.0 0.0 0.08 0.08 0.08 91 1017.1
20260509132116 5 157 0.0 0.0 0.08 0.08 0.08 91 1017.1
20260509131118 5 157 0.0 0.0 0.05 0.05 0.05 91 1017.2
20260509130117 5 157 0.0 0.0 0.05 0.05 0.05 90 1017.2
20260509125217 5 157 0.0 0.0 0.03 0.03 0.03 91 1017.3
20260509124218 4 157 0.0 0.0 0.03 0.03 0.03 91 1017.3
20260509123117 4 170 0.0 3.2 0.00 0.00 0.00 90 1017.5
20260509122117 4 180 0.0 0.0 0.00 0.00 0.00 89 1017.7
20260509121116 3 180 0.0 0.0 0.00 0.00 0.00 90 1017.7
20260509120132 3 180 0.0 0.0 0.00 0.00 0.00 90 1017.5
20260509115216 3 180 0.0 0.0 0.00 0.00 0.00 90 1017.6
20260509114218 2 180 0.0 0.0 0.00 0.00 0.00 90 1017.6
20260509114133 2 180 0.0 0.0 0.00 0.00 0.00 91 1017.5
20260509111219 1 157 0.0 0.0 0.00 0.00 0.00 91 1017.5
20260509111118 1 157 0.0 0.0 0.00 0.00 0.00 90 1017.4
20260509105117 1 157 0.0 0.0 0.00 0.00 0.00 92 1017.6
20260509105018 1 157 0.0 0.0 0.00 0.00 0.00 92 1017.6
20260509104033 1 157 0.0 0.0 0.00 0.00 0.00 91 1017.6
20260509103116 0 157 0.0 0.0 0.00 0.00 0.00 91 1017.6
20260509103016 0 157 0.0 0.0 0.00 0.00 0.00 91 1017.5
20260509101018 0 157 0.0 0.0 0.00 0.00 0.00 92 1017.5
20260509100916 0 157 0.0 0.0 0.00 0.00 0.00 92 1017.4
20260509095918 0 157 1.6 1.6 0.00 0.00 0.00 92 1017.3
20260509094917 0 157 0.0 0.0 0.00 0.00 0.00 91 1017.1
20260509093916 0 157 0.0 0.0 0.00 0.00 0.00 92 1017.1
20260509093818 0 157 0.0 0.0 0.00 0.00 0.00 91 1017.1
20260509092817 0 157 1.6 3.2 0.00 0.00 0.00 92 1017.1
20260509091916 0 157 0.0 0.0 0.00 0.00 0.00 92 1016.9
20260509090919 0 157 0.0 0.0 0.00 0.00 0.00 90 1016.8
20260509090015 0 157 0.0 0.0 0.00 0.00 0.00 90 1016.7
20260509085918 0 157 0.0 0.0 0.00 0.00 0.00 91 1016.9
20260509084938 0 157 0.0 0.0 0.00 0.00 0.00 91 1016.8
20260509082937 -1 157 1.6 3.2 0.00 0.00 0.00 91 1016.4
20260509081938 -1 157 0.0 0.0 0.00 0.00 0.00 91 1016.5
20260509081036 0 157 0.0 0.0 0.00 0.00 0.00 91 1016.4
20260509080039 0 157 0.0 1.6 0.00 0.00 0.00 90 1016.4
20260509075136 0 180 1.6 1.6 0.00 0.00 0.00 91 1016.3
20260509074137 0 180 0.0 0.0 0.00 0.00 0.00 90 1016.5
20260509073136 0 180 0.0 0.0 0.00 0.00 0.00 89 1016.5
20260509073037 0 180 0.0 0.0 0.00 0.00 0.00 89 1016.5
20260509072038 0 180 0.0 0.0 0.00 0.00 0.00 89 1016.6
20260509071936 0 180 0.0 0.0 0.00 0.00 0.00 89 1016.6
20260509065953 0 180 0.0 0.0 0.00 0.00 0.00 88 1016.3
20260509064936 0 180 0.0 0.0 0.00 0.00 0.00 88 1016.5
20260509062938 0 22 0.0 0.0 0.00 0.00 0.00 88 1016.6
20260509061938 1 22 0.0 1.6 0.00 0.00 0.00 87 1016.6
20260509061036 1 22 1.6 3.2 0.00 0.00 0.00 87 1016.7
20260509060937 1 337 0.0 3.2 0.00 0.00 0.00 87 1016.7
20260509055936 1 315 0.0 0.0 0.00 0.00 0.00 85 1016.8
20260509053135 1 315 0.0 0.0 0.00 0.00 0.00 84 1016.9
20260509052151 1 315 0.0 0.0 0.00 0.00 0.00 82 1016.7
20260509051235 2 315 0.0 0.0 0.00 0.00 0.00 82 1016.6
20260509050239 2 315 0.0 0.0 0.00 0.00 0.00 81 1016.7
20260509045335 2 315 0.0 0.0 0.00 0.00 0.00 80 1016.5
20260509045237 2 315 0.0 0.0 0.00 0.00 0.00 80 1016.5
20260509043235 2 315 0.0 0.0 0.00 0.00 0.00 79 1016.5
20260509042236 3 315 0.0 0.0 0.00 0.00 0.00 77 1016.4
20260509041335 3 315 0.0 0.0 0.00 0.00 0.00 77 1016.4
20260509040238 3 315 0.0 0.0 0.00 0.00 0.00 75 1016.3
20260509035246 3 225 0.0 0.0 0.00 0.00 0.00 74 1016.3
20260509032247 4 281 0.0 3.2 0.00 0.00 0.00 74 1016.3
20260509025347 4 112 0.0 0.0 0.00 0.00 0.00 72 1016.0
20260509024345 5 112 0.0 0.0 0.00 0.00 0.00 70 1015.8
20260509023345 5 112 0.0 0.0 0.00 0.00 0.00 70 1016.0
20260509023244 5 112 0.0 0.0 0.00 0.00 0.00 69 1016.0
20260509022246 5 112 1.6 1.6 0.00 0.00 0.00 68 1015.9
20260509021344 6 112 0.0 1.6 0.00 0.00 0.00 66 1015.8
20260509020345 6 112 0.0 1.6 0.00 0.00 0.00 64 1015.7
20260509015444 7 22 1.6 1.6 0.00 0.00 0.00 61 1015.5
20260509014445 7 270 0.0 1.6 0.00 0.00 0.00 59 1015.5
20260509014344 7 270 0.0 1.6 0.00 0.00 0.00 59 1015.4
20260509012345 7 263 3.2 6.4 0.00 0.00 0.00 59 1015.1
20260509011346 7 254 1.6 3.2 0.00 0.00 0.00 59 1015.0
20260509010347 7 242 3.2 8.0 0.00 0.00 0.00 58 1015.0
20260509005347 8 247 1.6 3.2 0.00 0.00 0.00 57 1014.6
20260509004444 8 247 1.6 3.2 0.00 0.00 0.00 56 1014.4
20260509004347 8 247 1.6 3.2 0.00 0.00 0.00 56 1014.5
20260509003347 8 247 1.6 3.2 0.00 0.00 0.00 56 1014.4
20260509002345 8 253 3.2 4.8 0.00 0.00 0.00 55 1014.3
20260509001346 8 311 1.6 3.2 0.00 0.00 0.00 55 1014.1
20260509000444 8 246 4.8 8.0 0.00 0.00 0.00 54 1014.0
20260509000348 8 244 4.8 6.4 0.00 0.00 0.00 55 1014.1
20260508235444 8 248 3.2 6.4 0.00 0.00 0.00 54 1014.1
20260508234447 8 274 8.0 14.5 0.00 0.00 0.00 54 1013.8
20260508233447 8 253 3.2 8.0 0.00 0.00 0.00 53 1013.7
20260508232446 8 293 8.0 14.5 0.00 0.00 0.00 51 1013.5